When you browse on this site, cookies collect data to enhance your experience and personalize the content and advertising you see.
Visit our Privacy Policy to learn more. By continuing to use the site, you agree to this use of cookies and data.
  • In Lithuania
  • List of Countries
  • For 7 days
  • Water Temperature
  • Satellite Maps
  • Weather Map
  • Weather Widgets
  • user-avatar
    Login

    Hourly Weather Polichno

    Today, 20 February, Wednesday

    Time Temperature Precipitation Wind Pressure Humidity
    00:00 +3°C° 0 mm 6 mps 750 mmHg 86%
    01:00 +2°C° 0 mm 5 mps 751 mmHg 85%
    02:00 +2°C° 0 mm 5 mps 751 mmHg 87%
    03:00 +2°C° 0 mm 5 mps 751 mmHg 89%
    04:00 +2°C° 0 mm 6 mps 751 mmHg 90%
    05:00 +2°C° 0 mm 6 mps 751 mmHg 89%
    06:00 +2°C° 0 mm 6 mps 751 mmHg 87%
    07:00 +2°C° 0 mm 6 mps 752 mmHg 85%
    08:00 +2°C° 0 mm 6 mps 752 mmHg 82%
    09:00 +3°C° 0 mm 6 mps 753 mmHg 79%
    10:00 +3°C° 0 mm 7 mps 753 mmHg 75%
    11:00 +3°C° 0 mm 7 mps 753 mmHg 74%
    12:00 +3°C° 0 mm 7 mps 753 mmHg 72%
    13:00 +4°C° 0 mm 7 mps 754 mmHg 70%
    14:00 +4°C° 0.1 mm 6 mps 754 mmHg 72%
    15:00 +4°C° 0.1 mm 6 mps 754 mmHg 73%
    16:00 +4°C° 0.1 mm 6 mps 754 mmHg 75%
    17:00 +3°C° 0.1 mm 5 mps 755 mmHg 75%
    18:00 +3°C° 0.1 mm 5 mps 755 mmHg 76%
    19:00 +4°C° 0.1 mm 4 mps 755 mmHg 77%
    20:00 +4°C° 0 mm 4 mps 756 mmHg 79%
    21:00 +4°C° 0 mm 4 mps 756 mmHg 81%
    22:00 +4°C° 0 mm 3 mps 756 mmHg 83%
    23:00 +4°C° 0 mm 3 mps 756 mmHg 83%

    Tomorrow, 21 February, Thursday

    Time Temperature Precipitation Wind Pressure Humidity
    00:00 +4°C° 0 mm 3 mps 756 mmHg 84%
    01:00 +4°C° 0 mm 3 mps 757 mmHg 85%
    02:00 +4°C° 0 mm 3 mps 757 mmHg 87%
    03:00 +3°C° 0 mm 3 mps 756 mmHg 90%
    04:00 +3°C° 0 mm 4 mps 756 mmHg 92%
    05:00 +3°C° 0 mm 4 mps 756 mmHg 91%
    06:00 +3°C° 0 mm 4 mps 756 mmHg 90%
    07:00 +3°C° 0 mm 4 mps 756 mmHg 89%
    08:00 +3°C° 0.3 mm 5 mps 756 mmHg 88%
    09:00 +3°C° 0.3 mm 5 mps 756 mmHg 87%
    10:00 +3°C° 0.3 mm 5 mps 756 mmHg 85%
    11:00 +3°C° 0.7 mm 6 mps 755 mmHg 85%
    12:00 +3°C° 0.7 mm 6 mps 755 mmHg 85%
    13:00 +4°C° 0.7 mm 7 mps 755 mmHg 85%
    14:00 +3°C° 1 mm 7 mps 754 mmHg 85%
    15:00 +3°C° 1 mm 7 mps 754 mmHg 86%
    16:00 +3°C° 1 mm 7 mps 754 mmHg 87%
    17:00 +4°C° 0.5 mm 6 mps 754 mmHg 88%
    18:00 +4°C° 0.5 mm 6 mps 753 mmHg 89%
    19:00 +4°C° 0.5 mm 6 mps 753 mmHg 90%
    20:00 +4°C° 0.2 mm 6 mps 753 mmHg 90%
    21:00 +4°C° 0.2 mm 6 mps 753 mmHg 91%
    22:00 +5°C° 0.2 mm 6 mps 753 mmHg 91%
    23:00 +5°C° 0.9 mm 6 mps 753 mmHg 91%

    Day after tomorrow, 22 February, Friday

    Time Temperature Precipitation Wind Pressure Humidity
    00:00 +5°C° 0.9 mm 6 mps 753 mmHg 91%
    01:00 +5°C° 0.9 mm 6 mps 753 mmHg 90%
    02:00 +4°C° 0.6 mm 6 mps 754 mmHg 90%
    03:00 +4°C° 0.6 mm 6 mps 754 mmHg 89%
    04:00 +3°C° 0.6 mm 6 mps 755 mmHg 89%
    05:00 +2°C° 0.1 mm 7 mps 756 mmHg 85%
    06:00 -1°C° 0.1 mm 7 mps 758 mmHg 81%
    07:00 -4°C° 0.1 mm 8 mps 759 mmHg 77%
    08:00 -3°C° 0 mm 7 mps 760 mmHg 70%
    09:00 -3°C° 0 mm 7 mps 762 mmHg 64%
    10:00 -3°C° 0 mm 6 mps 763 mmHg 58%
    11:00 -2°C° 0 mm 6 mps 764 mmHg 55%
    12:00 -2°C° 0 mm 6 mps 765 mmHg 52%
    13:00 -2°C° 0 mm 6 mps 765 mmHg 49%
    14:00 -1°C° 0 mm 5 mps 766 mmHg 48%
    15:00 -1°C° 0 mm 5 mps 766 mmHg 47%
    16:00 -2°C° 0 mm 5 mps 767 mmHg 46%
    17:00 -2°C° 0 mm 5 mps 767 mmHg 50%
    18:00 -3°C° 0 mm 4 mps 768 mmHg 53%
    19:00 -4°C° 0 mm 4 mps 769 mmHg 56%
    20:00 -4°C° 0 mm 4 mps 769 mmHg 55%
    21:00 -4°C° 0 mm 4 mps 769 mmHg 54%
    22:00 -5°C° 0 mm 4 mps 770 mmHg 53%
    23:00 -5°C° 0 mm 4 mps 770 mmHg 50%

    23 February, Saturday

    Time Temperature Precipitation Wind Pressure Humidity
    00:00 -5°C° 0 mm 4 mps 770 mmHg 48%
    01:00 -5°C° 0 mm 4 mps 771 mmHg 45%
    02:00 -5°C° 0 mm 3 mps 770 mmHg 43%
    03:00 -5°C° 0 mm 3 mps 770 mmHg 42%
    04:00 -4°C° 0 mm 2 mps 770 mmHg 40%
    05:00 -4°C° 0 mm 2 mps 770 mmHg 40%
    06:00 -4°C° 0 mm 2 mps 771 mmHg 40%
    07:00 -4°C° 0 mm 2 mps 771 mmHg 40%
    08:00 -4°C° 0 mm 2 mps 771 mmHg 37%
    09:00 -3°C° 0 mm 2 mps 772 mmHg 35%
    10:00 -3°C° 0 mm 2 mps 772 mmHg 32%
    11:00 -2°C° 0 mm 2 mps 771 mmHg 30%
    12:00 0°C° 0 mm 1 mps 771 mmHg 28%
    13:00 +1°C° 0 mm 1 mps 771 mmHg 26%
    14:00 +1°C° 0 mm 1 mps 771 mmHg 27%
    15:00 +1°C° 0 mm 1 mps 771 mmHg 28%
    16:00 +1°C° 0 mm 1 mps 771 mmHg 29%
    17:00 0°C° 0 mm 1 mps 770 mmHg 32%
    18:00 0°C° 0 mm 1 mps 770 mmHg 35%
    19:00 -2°C° 0 mm 0 mps 770 mmHg 38%
    20:00 -2°C° 0 mm 0 mps 770 mmHg 37%
    21:00 -1°C° 0 mm 0 mps 770 mmHg 37%
    22:00 -1°C° 0 mm 0 mps 770 mmHg 36%
    23:00 -1°C° 0 mm 0 mps 770 mmHg 37%

    24 February, Sunday

    Time Temperature Precipitation Wind Pressure Humidity
    00:00 0°C° 0 mm 1 mps 770 mmHg 37%
    01:00 0°C° 0 mm 1 mps 770 mmHg 37%
    02:00 0°C° 0 mm 1 mps 769 mmHg 38%
    03:00 0°C° 0 mm 1 mps 769 mmHg 38%
    04:00 0°C° 0 mm 1 mps 769 mmHg 39%
    05:00 -2°C° 0 mm 2 mps 769 mmHg 39%
    06:00 -2°C° 0 mm 2 mps 768 mmHg 39%
    07:00 -2°C° 0 mm 2 mps 768 mmHg 39%
    08:00 -1°C° 0 mm 2 mps 768 mmHg 37%
    09:00 -1°C° 0 mm 2 mps 768 mmHg 35%
    10:00 +1°C° 0 mm 2 mps 768 mmHg 33%
    11:00 +2°C° 0 mm 2 mps 768 mmHg 33%
    12:00 +3°C° 0 mm 2 mps 768 mmHg 33%
    13:00 +3°C° 0 mm 3 mps 767 mmHg 33%
    14:00 +4°C° 0 mm 2 mps 767 mmHg 38%
    15:00 +3°C° 0 mm 2 mps 767 mmHg 43%
    16:00 +3°C° 0 mm 2 mps 767 mmHg 48%
    17:00 +2°C° 0 mm 2 mps 767 mmHg 51%
    18:00 +1°C° 0 mm 2 mps 767 mmHg 54%
    19:00 -1°C° 0 mm 2 mps 767 mmHg 57%
    20:00 -1°C° 0 mm 2 mps 767 mmHg 58%
    21:00 +1°C° 0 mm 1 mps 767 mmHg 59%
    22:00 +1°C° 0 mm 1 mps 767 mmHg 60%
    23:00 -1°C° 0 mm 2 mps 767 mmHg 61%

    25 February, Monday

    Time Temperature Precipitation Wind Pressure Humidity
    00:00 -1°C° 0 mm 2 mps 767 mmHg 61%
    01:00 -1°C° 0 mm 2 mps 767 mmHg 62%
    02:00 -1°C° 0 mm 2 mps 767 mmHg 63%
    03:00 -1°C° 0 mm 2 mps 767 mmHg 64%
    04:00 -1°C° 0 mm 3 mps 766 mmHg 65%
    05:00 -1°C° 0 mm 3 mps 766 mmHg 66%
    06:00 -1°C° 0 mm 3 mps 766 mmHg 67%
    07:00 -1°C° 0 mm 3 mps 766 mmHg 68%
    08:00 0°C° 0 mm 3 mps 766 mmHg 66%
    09:00 +1°C° 0 mm 3 mps 766 mmHg 65%
    10:00 +1°C° 0 mm 4 mps 766 mmHg 63%
    11:00 +4°C° 0 mm 4 mps 766 mmHg 65%
    12:00 +5°C° 0 mm 4 mps 766 mmHg 67%
    13:00 +6°C° 0 mm 5 mps 766 mmHg 70%
    14:00 +6°C° 0 mm 4 mps 766 mmHg 69%
    15:00 +6°C° 0 mm 4 mps 766 mmHg 69%
    16:00 +6°C° 0 mm 4 mps 765 mmHg 69%
    17:00 +5°C° 0 mm 4 mps 766 mmHg 71%
    18:00 +4°C° 0 mm 4 mps 766 mmHg 73%
    19:00 +3°C° 0 mm 4 mps 766 mmHg 76%
    20:00 +2°C° 0 mm 3 mps 767 mmHg 78%
    21:00 +1°C° 0 mm 3 mps 767 mmHg 81%
    22:00 +1°C° 0 mm 3 mps 767 mmHg 83%
    23:00 +1°C° 0 mm 3 mps 767 mmHg 84%
    Show more